Flag for Canada Weather past 2 weeks in Saskatoon, Saskatchewan, Canada

Now
50 °F

Passing clouds.


Feels Like: 47 °F
Forecast: 43 / 67 °F
Wind: 8 mph from Northeast

Location: Saskatoon Weather Station

Current Time: Aug 29, 2014 at 3:07:45 AM

Latest Report: Aug 29, 2014 at 2:00 AM


Visibility: 15 mi

Pressure: 30.01 "Hg

Humidity: 94%

Dew point: 48 °F

Location of SaskatoonLocation

Historic Weather in Saskatoon — Graph

°F

Saskatoon temperature yesterday

Maximum temperature yesterday: 72 °F (at 2:00 PM)
Minimum temperature yesterday: 50 °F (at 3:00 AM)
Average temperature yesterday: 61 °F

Past Weeks' High & Low Weather Summary

 TemperatureHumidityPressure
High86 °F (Aug 19, 2:00 PM)100% (Aug 14, 2:00 AM)30.35 "Hg (Aug 14, 2:00 AM)
Low37 °F (Aug 25, 6:00 AM)31% (Aug 18, 4:00 PM)29.59 "Hg (Aug 19, 3:00 PM)
Average63 °F76%29.97 "Hg
* Reported Aug 14 2:00 AM — Aug 29 2:00 AM, Saskatoon, Weather by CustomWeather, © 2014

Note: Actual official high and low records may vary slightly from our data, if they occured in-between our weather recording intervals... More about our weather records

Advertising

Saskatoon weather history for previous 24 hours

 ConditionsComfort  
Time TempWeatherWind HumidityBarometerVisibility
2:00 AM
Aug 29
50 °FPassing clouds.8 mph94%30.01 "Hg15 mi
1:00 AM52 °FPassing clouds.13 mph88%30.00 "Hg15 mi
12:00 AM54 °FPassing clouds.7 mph88%29.98 "Hg15 mi
11:00 PM
Aug 28
55 °FPassing clouds.7 mph94%29.97 "Hg15 mi
10:00 PM57 °FPassing clouds.7 mph88%29.96 "Hg15 mi
9:00 PM57 °FPassing clouds.3 mph88%29.94 "Hg15 mi
8:00 PM61 °FPartly sunny.7 mph77%29.92 "Hg15 mi
7:00 PM61 °FSprinkles. Partly sunny.7 mph68%29.93 "Hg15 mi
6:47 PM63 °FSprinkles. Mostly cloudy.16 mph64%29.92 "Hg15 mi
6:00 PM68 °FOvercast.9 mph56%29.90 "Hg15 mi
5:00 PM70 °FBroken clouds.10 mph46%29.88 "Hg15 mi
4:00 PM72 °FBroken clouds.13 mph47%29.88 "Hg15 mi
3:00 PM72 °FBroken clouds.12 mph53%29.89 "Hg15 mi
2:00 PM72 °FBroken clouds.9 mph53%29.89 "Hg15 mi
1:00 PM70 °FBroken clouds.8 mph60%29.90 "Hg15 mi
12:00 PM70 °FBroken clouds.7 mph60%29.89 "Hg15 mi
11:00 AM66 °FPartly sunny.10 mph68%29.90 "Hg15 mi
10:00 AM68 °FScattered clouds.16 mph64%29.91 "Hg15 mi
9:00 AM63 °FScattered clouds.6 mph77%29.90 "Hg15 mi
8:00 AM59 °FPartly sunny.3 mph88%29.88 "Hg15 mi
7:00 AM57 °FScattered showers. Partly sunny.5 mph88%29.87 "Hg15 mi
6:00 AM57 °FScattered showers. Passing clouds.9 mph88%29.86 "Hg15 mi
5:00 AM52 °FPassing clouds.6 mph100%29.87 "Hg15 mi
4:00 AM50 °FPassing clouds.2 mph94%29.85 "Hg15 mi
3:00 AM50 °FFog.6 mph100%29.86 "Hg15 mi
Weather by CustomWeather, © 2014

See weather overviewHow to use our weather pages